contact:dominique.lefevre@mio.osupytheas.fr, maurice.libes@osupytheas.fr, didier.mallarino@osupytheas.fr
Project:EMSO http://www.emso-fr.org/EMSO-France
Depth: 2436.0 m
Title:EMSO Ligure Ouest : Data MII capteur CSTAR
DateTime,Latitude,Longitude,Instrument_Serial,Reference_Counts,Signal_Counts,Corrected_Signal_raw_counts,Calculated_Beam_c_inverse_meters,Internal_thermistor_counts
DateTime,Latitude,Longitude,Instrument_Serial,Reference_Counts,Signal_Counts,Corrected_Signal_raw_counts,Calculated_Beam_c_inverse_meters,Internal_thermistor_counts
2022-01-25T00:02:30,42.805,6.029,CST-1368DR,4953,6255,13491,0.585,551
2022-01-25T00:05:31,42.805,6.029,CST-1368DR,4953,6255,13491,0.585,551
2022-01-25T00:08:33,42.805,6.029,CST-1368DR,4953,6255,13490,0.585,551
2022-01-25T00:11:34,42.805,6.029,CST-1368DR,4953,6255,13491,0.585,551
2022-01-25T00:14:36,42.805,6.029,CST-1368DR,4952,6253,13489,0.586,551
2022-01-25T00:17:37,42.805,6.029,CST-1368DR,4953,6254,13490,0.585,551
2022-01-25T00:20:39,42.805,6.029,CST-1368DR,4953,6255,13492,0.585,551
2022-01-25T00:23:41,42.805,6.029,CST-1368DR,4953,6255,13491,0.585,551
2022-01-25T00:26:42,42.805,6.029,CST-1368DR,4953,6255,13490,0.585,551
2022-01-25T00:29:44,42.805,6.029,CST-1368DR,4953,6255,13491,0.585,551
2022-01-25T00:32:45,42.805,6.029,CST-1368DR,4953,6255,13491,0.585,551
2022-01-25T00:35:47,42.805,6.029,CST-1368DR,4953,6256,13493,0.585,551
2022-01-25T00:38:49,42.805,6.029,CST-1368DR,4953,6256,13493,0.585,551
2022-01-25T00:41:50,42.805,6.029,CST-1368DR,4953,6255,13492,0.585,551
2022-01-25T00:44:52,42.805,6.029,CST-1368DR,4953,6255,13490,0.585,551
2022-01-25T00:47:53,42.805,6.029,CST-1368DR,4953,6256,13492,0.585,551
2022-01-25T00:50:55,42.805,6.029,CST-1368DR,4953,6255,13492,0.585,551
2022-01-25T00:53:56,42.805,6.029,CST-1368DR,4953,6256,13492,0.585,551
2022-01-25T00:56:58,42.805,6.029,CST-1368DR,4953,6254,13490,0.585,551
2022-01-25T01:00:00,42.805,6.029,CST-1368DR,4953,6255,13492,0.585,551
2022-01-25T01:03:01,42.805,6.029,CST-1368DR,4953,6256,13492,0.585,551
2022-01-25T01:06:03,42.805,6.029,CST-1368DR,4952,6256,13495,0.584,551
2022-01-25T01:09:04,42.805,6.029,CST-1368DR,4953,6255,13492,0.585,551
2022-01-25T01:12:06,42.805,6.029,CST-1368DR,4953,6256,13493,0.585,551
2022-01-25T01:15:07,42.805,6.029,CST-1368DR,4953,6255,13492,0.585,551
2022-01-25T01:18:09,42.805,6.029,CST-1368DR,4953,6255,13491,0.585,551
2022-01-25T01:21:11,42.805,6.029,CST-1368DR,4953,6255,13492,0.585,551
2022-01-25T01:24:12,42.805,6.029,CST-1368DR,4953,6256,13493,0.585,551
2022-01-25T01:27:14,42.805,6.029,CST-1368DR,4953,6255,13491,0.585,551
2022-01-25T01:30:15,42.805,6.029,CST-1368DR,4953,6254,13489,0.586,551
2022-01-25T01:33:17,42.805,6.029,CST-1368DR,4953,6254,13488,0.586,551
2022-01-25T01:36:19,42.805,6.029,CST-1368DR,4953,6254,13490,0.585,551
2022-01-25T01:39:20,42.805,6.029,CST-1368DR,4953,6256,13493,0.585,551
2022-01-25T01:42:22,42.805,6.029,CST-1368DR,4952,6255,13494,0.584,551
2022-01-25T01:45:23,42.805,6.029,CST-1368DR,4953,6255,13491,0.585,551
2022-01-25T01:48:25,42.805,6.029,CST-1368DR,4953,6253,13487,0.586,551
2022-01-25T01:51:26,42.805,6.029,CST-1368DR,4953,6255,13492,0.585,551
2022-01-25T01:54:28,42.805,6.029,CST-1368DR,4953,6256,13492,0.585,551
2022-01-25T01:57:30,42.805,6.029,CST-1368DR,4952,6256,13495,0.584,551
2022-01-25T02:00:31,42.805,6.029,CST-1368DR,4952,6256,13495,0.584,551
2022-01-25T02:03:33,42.805,6.029,CST-1368DR,4952,6255,13493,0.585,551
2022-01-25T02:06:34,42.805,6.029,CST-1368DR,4953,6255,13492,0.585,551
2022-01-25T02:09:36,42.805,6.029,CST-1368DR,4953,6255,13490,0.585,551
2022-01-25T02:12:38,42.805,6.029,CST-1368DR,4953,6256,13492,0.585,551
2022-01-25T02:15:39,42.805,6.029,CST-1368DR,4952,6256,13495,0.584,551
2022-01-25T02:18:41,42.805,6.029,CST-1368DR,4952,6256,13496,0.584,551
2022-01-25T02:21:42,42.805,6.029,CST-1368DR,4952,6255,13494,0.584,551
2022-01-25T02:24:44,42.805,6.029,CST-1368DR,4952,6256,13495,0.584,551
2022-01-25T02:27:45,42.805,6.029,CST-1368DR,4952,6255,13493,0.585,551
2022-01-25T02:30:47,42.805,6.029,CST-1368DR,4952,6256,13495,0.584,551
2022-01-25T02:33:49,42.805,6.029,CST-1368DR,4952,6255,13493,0.585,551
2022-01-25T02:36:50,42.805,6.029,CST-1368DR,4952,6256,13496,0.584,551
2022-01-25T02:39:52,42.805,6.029,CST-1368DR,4952,6256,13496,0.584,551
2022-01-25T02:42:53,42.805,6.029,CST-1368DR,4952,6256,13496,0.584,551
2022-01-25T02:45:55,42.805,6.029,CST-1368DR,4952,6255,13494,0.584,551
2022-01-25T02:48:57,42.805,6.029,CST-1368DR,4952,6255,13494,0.584,551
2022-01-25T02:51:58,42.805,6.029,CST-1368DR,4952,6255,13493,0.585,551
2022-01-25T02:55:00,42.805,6.029,CST-1368DR,4952,6255,13494,0.584,551
2022-01-25T02:58:01,42.805,6.029,CST-1368DR,4952,6256,13495,0.584,551
2022-01-25T03:01:03,42.805,6.029,CST-1368DR,4952,6255,13493,0.585,551
2022-01-25T03:04:04,42.805,6.029,CST-1368DR,4952,6256,13495,0.584,551
2022-01-25T03:07:06,42.805,6.029,CST-1368DR,4952,6254,13492,0.585,551
2022-01-25T03:10:08,42.805,6.029,CST-1368DR,4952,6255,13493,0.585,551
2022-01-25T03:13:09,42.805,6.029,CST-1368DR,4952,6255,13493,0.585,551
2022-01-25T03:16:11,42.805,6.029,CST-1368DR,4952,6253,13488,0.586,551
2022-01-25T03:19:12,42.805,6.029,CST-1368DR,4952,6255,13493,0.585,551
2022-01-25T03:22:14,42.805,6.029,CST-1368DR,4952,6254,13492,0.585,551
2022-01-25T03:25:15,42.805,6.029,CST-1368DR,4952,6256,13496,0.584,551
2022-01-25T03:28:17,42.805,6.029,CST-1368DR,4952,6256,13496,0.584,551
2022-01-25T03:31:19,42.805,6.029,CST-1368DR,4952,6256,13496,0.584,551
2022-01-25T03:34:20,42.805,6.029,CST-1368DR,4952,6255,13493,0.585,551
2022-01-25T03:37:22,42.805,6.029,CST-1368DR,4952,6255,13493,0.585,551
2022-01-25T03:40:23,42.805,6.029,CST-1368DR,4952,6256,13496,0.584,551
2022-01-25T03:43:25,42.805,6.029,CST-1368DR,4952,6255,13494,0.584,551
2022-01-25T03:46:27,42.805,6.029,CST-1368DR,4952,6256,13495,0.584,551
2022-01-25T03:49:28,42.805,6.029,CST-1368DR,4952,6257,13498,0.583,551
2022-01-25T03:52:30,42.805,6.029,CST-1368DR,4952,6255,13493,0.585,551
2022-01-25T03:55:31,42.805,6.029,CST-1368DR,4952,6256,13495,0.584,551
2022-01-25T03:58:33,42.805,6.029,CST-1368DR,4952,6256,13496,0.584,551
2022-01-25T04:01:34,42.805,6.029,CST-1368DR,4952,6256,13496,0.584,551
2022-01-25T04:04:36,42.805,6.029,CST-1368DR,4952,6256,13496,0.584,551
2022-01-25T04:07:38,42.805,6.029,CST-1368DR,4952,6256,13495,0.584,551
2022-01-25T04:10:39,42.805,6.029,CST-1368DR,4952,6257,13498,0.583,551
2022-01-25T04:13:41,42.805,6.029,CST-1368DR,4952,6256,13495,0.584,551
2022-01-25T04:16:42,42.805,6.029,CST-1368DR,4952,6257,13498,0.583,551
2022-01-25T04:19:44,42.805,6.029,CST-1368DR,4952,6257,13499,0.583,551
2022-01-25T04:22:46,42.805,6.029,CST-1368DR,4952,6256,13496,0.584,551
2022-01-25T04:25:47,42.805,6.029,CST-1368DR,4952,6256,13495,0.584,551
2022-01-25T04:28:49,42.805,6.029,CST-1368DR,4952,6256,13496,0.584,551
2022-01-25T04:31:50,42.805,6.029,CST-1368DR,4952,6256,13496,0.584,551
2022-01-25T04:34:52,42.805,6.029,CST-1368DR,4952,6257,13498,0.583,551
2022-01-25T04:37:53,42.805,6.029,CST-1368DR,4952,6256,13495,0.584,551
2022-01-25T04:40:55,42.805,6.029,CST-1368DR,4952,6256,13496,0.584,551
2022-01-25T04:43:57,42.805,6.029,CST-1368DR,4952,6256,13496,0.584,551
2022-01-25T04:46:58,42.805,6.029,CST-1368DR,4952,6256,13496,0.584,551
2022-01-25T04:50:00,42.805,6.029,CST-1368DR,4952,6256,13496,0.584,551
2022-01-25T04:53:01,42.805,6.029,CST-1368DR,4952,6256,13495,0.584,551
2022-01-25T04:56:03,42.805,6.029,CST-1368DR,4952,6256,13496,0.584,551
2022-01-25T04:59:04,42.805,6.029,CST-1368DR,4952,6257,13498,0.583,551
2022-01-25T05:02:06,42.805,6.029,CST-1368DR,4952,6256,13496,0.584,551
2022-01-25T05:05:08,42.805,6.029,CST-1368DR,4952,6256,13495,0.584,551
2022-01-25T05:08:09,42.805,6.029,CST-1368DR,4952,6256,13495,0.584,551
2022-01-25T05:11:11,42.805,6.029,CST-1368DR,4952,6256,13495,0.584,551
2022-01-25T05:14:12,42.805,6.029,CST-1368DR,4952,6256,13496,0.584,551
2022-01-25T05:17:14,42.805,6.029,CST-1368DR,4952,6256,13495,0.584,551
2022-01-25T05:20:16,42.805,6.029,CST-1368DR,4952,6256,13496,0.584,551
2022-01-25T05:23:17,42.805,6.029,CST-1368DR,4952,6255,13494,0.584,551
2022-01-25T05:26:19,42.805,6.029,CST-1368DR,4952,6257,13498,0.583,551
2022-01-25T05:29:20,42.805,6.029,CST-1368DR,4952,6256,13496,0.584,551
2022-01-25T05:32:22,42.805,6.029,CST-1368DR,4952,6256,13496,0.584,551
2022-01-25T05:35:23,42.805,6.029,CST-1368DR,4952,6255,13494,0.584,551
2022-01-25T05:38:25,42.805,6.029,CST-1368DR,4952,6256,13496,0.584,551
2022-01-25T05:41:27,42.805,6.029,CST-1368DR,4952,6255,13493,0.585,551
2022-01-25T05:44:28,42.805,6.029,CST-1368DR,4952,6256,13495,0.584,551
2022-01-25T05:47:30,42.805,6.029,CST-1368DR,4952,6256,13496,0.584,551
2022-01-25T05:50:31,42.805,6.029,CST-1368DR,4952,6257,13498,0.583,551
2022-01-25T05:53:33,42.805,6.029,CST-1368DR,4952,6256,13495,0.584,551
2022-01-25T05:56:34,42.805,6.029,CST-1368DR,4952,6256,13496,0.584,551
2022-01-25T05:59:36,42.805,6.029,CST-1368DR,4952,6256,13495,0.584,551
2022-01-25T06:02:38,42.805,6.029,CST-1368DR,4952,6255,13494,0.584,551
2022-01-25T06:05:39,42.805,6.029,CST-1368DR,4952,6255,13494,0.584,551
2022-01-25T06:08:41,42.805,6.029,CST-1368DR,4952,6256,13496,0.584,551
2022-01-25T06:11:42,42.805,6.029,CST-1368DR,4952,6256,13495,0.584,551
2022-01-25T06:14:44,42.805,6.029,CST-1368DR,4952,6256,13496,0.584,551
2022-01-25T06:17:46,42.805,6.029,CST-1368DR,4952,6256,13495,0.584,551
2022-01-25T06:20:47,42.805,6.029,CST-1368DR,4952,6256,13496,0.584,551
2022-01-25T06:23:49,42.805,6.029,CST-1368DR,4952,6256,13495,0.584,551
2022-01-25T06:26:50,42.805,6.029,CST-1368DR,4952,6256,13495,0.584,551
2022-01-25T06:29:52,42.805,6.029,CST-1368DR,4952,6256,13496,0.584,551
2022-01-25T06:32:53,42.805,6.029,CST-1368DR,4952,6256,13496,0.584,551
2022-01-25T06:35:55,42.805,6.029,CST-1368DR,4952,6256,13495,0.584,551
2022-01-25T06:38:57,42.805,6.029,CST-1368DR,4952,6256,13496,0.584,551
2022-01-25T06:41:58,42.805,6.029,CST-1368DR,4952,6255,13493,0.585,551
2022-01-25T06:45:00,42.805,6.029,CST-1368DR,4952,6256,13496,0.584,551
2022-01-25T06:48:01,42.805,6.029,CST-1368DR,4952,6255,13493,0.585,551
2022-01-25T06:51:03,42.805,6.029,CST-1368DR,4952,6256,13495,0.584,551
2022-01-25T06:54:05,42.805,6.029,CST-1368DR,4952,6256,13495,0.584,551
2022-01-25T06:57:06,42.805,6.029,CST-1368DR,4952,6254,13492,0.585,551
2022-01-25T07:00:08,42.805,6.029,CST-1368DR,4952,6254,13491,0.585,551
2022-01-25T07:03:09,42.805,6.029,CST-1368DR,4952,6256,13495,0.584,551
2022-01-25T07:06:11,42.805,6.029,CST-1368DR,4952,6255,13493,0.585,551
2022-01-25T07:09:12,42.805,6.029,CST-1368DR,4952,6255,13493,0.585,551
2022-01-25T07:12:14,42.805,6.029,CST-1368DR,4952,6255,13494,0.584,551
2022-01-25T07:15:16,42.805,6.029,CST-1368DR,4952,6256,13495,0.584,551
2022-01-25T07:18:17,42.805,6.029,CST-1368DR,4952,6255,13493,0.585,551
2022-01-25T07:21:19,42.805,6.029,CST-1368DR,4952,6256,13495,0.584,550
2022-01-25T07:24:20,42.805,6.029,CST-1368DR,4952,6255,13494,0.584,551
2022-01-25T07:27:22,42.805,6.029,CST-1368DR,4952,6255,13494,0.584,551
2022-01-25T07:30:24,42.805,6.029,CST-1368DR,4952,6256,13495,0.584,551
2022-01-25T07:33:25,42.805,6.029,CST-1368DR,4952,6256,13496,0.584,551
2022-01-25T07:36:27,42.805,6.029,CST-1368DR,4952,6255,13493,0.585,551
2022-01-25T07:39:28,42.805,6.029,CST-1368DR,4952,6256,13495,0.584,551
2022-01-25T07:42:30,42.805,6.029,CST-1368DR,4952,6256,13495,0.584,551
2022-01-25T07:45:31,42.805,6.029,CST-1368DR,4952,6256,13495,0.584,551
2022-01-25T07:48:33,42.805,6.029,CST-1368DR,4952,6256,13495,0.584,551
2022-01-25T07:51:35,42.805,6.029,CST-1368DR,4952,6255,13494,0.584,551
2022-01-25T07:54:36,42.805,6.029,CST-1368DR,4952,6255,13493,0.585,551
2022-01-25T07:57:38,42.805,6.029,CST-1368DR,4952,6256,13495,0.584,551
2022-01-25T08:00:39,42.805,6.029,CST-1368DR,4952,6255,13494,0.584,551
2022-01-25T08:03:41,42.805,6.029,CST-1368DR,4952,6254,13491,0.585,551
2022-01-25T08:06:42,42.805,6.029,CST-1368DR,4952,6255,13493,0.585,551
2022-01-25T08:09:44,42.805,6.029,CST-1368DR,4952,6254,13492,0.585,551
2022-01-25T08:12:46,42.805,6.029,CST-1368DR,4952,6256,13495,0.584,551
2022-01-25T08:15:47,42.805,6.029,CST-1368DR,4952,6255,13494,0.584,551
2022-01-25T08:18:49,42.805,6.029,CST-1368DR,4952,6255,13494,0.584,551
2022-01-25T08:21:50,42.805,6.029,CST-1368DR,4952,6255,13494,0.584,551
2022-01-25T08:24:52,42.805,6.029,CST-1368DR,4952,6255,13494,0.584,551
2022-01-25T08:27:54,42.805,6.029,CST-1368DR,4952,6255,13494,0.584,551
2022-01-25T08:30:55,42.805,6.029,CST-1368DR,4952,6256,13495,0.584,551
2022-01-25T08:33:57,42.805,6.029,CST-1368DR,4952,6255,13494,0.584,551
2022-01-25T08:36:58,42.805,6.029,CST-1368DR,4952,6255,13493,0.585,551
2022-01-25T08:40:00,42.805,6.029,CST-1368DR,4952,6255,13493,0.585,551
2022-01-25T08:43:01,42.805,6.029,CST-1368DR,4952,6255,13494,0.584,551
2022-01-25T08:46:03,42.805,6.029,CST-1368DR,4952,6255,13494,0.584,551
2022-01-25T08:49:05,42.805,6.029,CST-1368DR,4952,6255,13494,0.584,551
2022-01-25T08:52:06,42.805,6.029,CST-1368DR,4952,6255,13493,0.585,551
2022-01-25T08:55:08,42.805,6.029,CST-1368DR,4952,6255,13493,0.585,551
2022-01-25T08:58:09,42.805,6.029,CST-1368DR,4952,6255,13493,0.585,551
2022-01-25T09:01:11,42.805,6.029,CST-1368DR,4952,6255,13493,0.585,551
2022-01-25T09:04:13,42.805,6.029,CST-1368DR,4952,6254,13492,0.585,551
2022-01-25T09:07:14,42.805,6.029,CST-1368DR,4952,6254,13491,0.585,551
2022-01-25T09:10:16,42.805,6.029,CST-1368DR,4952,6255,13493,0.585,551
2022-01-25T09:13:17,42.805,6.029,CST-1368DR,4952,6255,13494,0.584,551
2022-01-25T09:16:19,42.805,6.029,CST-1368DR,4952,6255,13493,0.585,551
2022-01-25T09:19:20,42.805,6.029,CST-1368DR,4952,6255,13494,0.584,551
2022-01-25T09:22:22,42.805,6.029,CST-1368DR,4952,6256,13495,0.584,551
2022-01-25T09:25:24,42.805,6.029,CST-1368DR,4952,6255,13494,0.584,551
2022-01-25T09:28:25,42.805,6.029,CST-1368DR,4952,6255,13494,0.584,551
2022-01-25T09:31:27,42.805,6.029,CST-1368DR,4952,6255,13493,0.585,551
2022-01-25T09:34:28,42.805,6.029,CST-1368DR,4952,6252,13488,0.586,551
2022-01-25T09:37:30,42.805,6.029,CST-1368DR,4952,6252,13488,0.586,551
2022-01-25T09:40:31,42.805,6.029,CST-1368DR,4952,6252,13488,0.586,551
2022-01-25T09:43:33,42.805,6.029,CST-1368DR,4952,6255,13493,0.585,551
2022-01-25T09:46:35,42.805,6.029,CST-1368DR,4952,6255,13493,0.585,551
2022-01-25T09:49:36,42.805,6.029,CST-1368DR,4952,6255,13494,0.584,551
2022-01-25T09:52:38,42.805,6.029,CST-1368DR,4952,6255,13493,0.585,551
2022-01-25T09:55:39,42.805,6.029,CST-1368DR,4952,6253,13489,0.586,551
2022-01-25T09:58:41,42.805,6.029,CST-1368DR,4952,6255,13494,0.584,551
2022-01-25T10:01:43,42.805,6.029,CST-1368DR,4952,6255,13494,0.584,551
2022-01-25T10:04:44,42.805,6.029,CST-1368DR,4952,6254,13492,0.585,551
2022-01-25T10:07:46,42.805,6.029,CST-1368DR,4952,6255,13493,0.585,551
2022-01-25T10:10:47,42.805,6.029,CST-1368DR,4952,6254,13492,0.585,551
2022-01-25T10:13:49,42.805,6.029,CST-1368DR,4952,6254,13492,0.585,551
2022-01-25T10:16:50,42.805,6.029,CST-1368DR,4952,6254,13491,0.585,551
2022-01-25T10:19:52,42.805,6.029,CST-1368DR,4952,6255,13493,0.585,551
2022-01-25T10:22:54,42.805,6.029,CST-1368DR,4952,6255,13493,0.585,551
2022-01-25T10:25:55,42.805,6.029,CST-1368DR,4952,6253,13489,0.586,551
2022-01-25T10:28:57,42.805,6.029,CST-1368DR,4952,6252,13488,0.586,551
2022-01-25T10:31:58,42.805,6.029,CST-1368DR,4952,6254,13491,0.585,551
2022-01-25T10:35:00,42.805,6.029,CST-1368DR,4952,6254,13492,0.585,551
2022-01-25T10:38:02,42.805,6.029,CST-1368DR,4952,6255,13493,0.585,551
2022-01-25T10:41:03,42.805,6.029,CST-1368DR,4952,6255,13493,0.585,551
2022-01-25T10:44:05,42.805,6.029,CST-1368DR,4952,6255,13494,0.584,551
2022-01-25T10:47:06,42.805,6.029,CST-1368DR,4952,6255,13494,0.584,551
2022-01-25T10:50:08,42.805,6.029,CST-1368DR,4952,6255,13493,0.585,551
2022-01-25T10:53:09,42.805,6.029,CST-1368DR,4952,6254,13492,0.585,551
2022-01-25T10:56:11,42.805,6.029,CST-1368DR,4952,6254,13492,0.585,551
2022-01-25T10:59:13,42.805,6.029,CST-1368DR,4952,6255,13493,0.585,551
2022-01-25T11:02:14,42.805,6.029,CST-1368DR,4952,6254,13491,0.585,551
2022-01-25T11:05:16,42.805,6.029,CST-1368DR,4952,6255,13493,0.585,551
2022-01-25T11:08:17,42.805,6.029,CST-1368DR,4952,6255,13493,0.585,551
2022-01-25T11:11:19,42.805,6.029,CST-1368DR,4952,6255,13493,0.585,551
2022-01-25T11:14:21,42.805,6.029,CST-1368DR,4952,6255,13493,0.585,551
2022-01-25T11:17:22,42.805,6.029,CST-1368DR,4952,6254,13492,0.585,551
2022-01-25T11:20:24,42.805,6.029,CST-1368DR,4952,6255,13493,0.585,551
2022-01-25T11:23:25,42.805,6.029,CST-1368DR,4952,6255,13493,0.585,551
2022-01-25T11:26:27,42.805,6.029,CST-1368DR,4952,6255,13493,0.585,551
2022-01-25T11:29:28,42.805,6.029,CST-1368DR,4952,6254,13491,0.585,551
2022-01-25T11:32:30,42.805,6.029,CST-1368DR,4952,6255,13493,0.585,551
2022-01-25T11:35:32,42.805,6.029,CST-1368DR,4952,6254,13492,0.585,551
2022-01-25T11:38:33,42.805,6.029,CST-1368DR,4952,6254,13492,0.585,551
2022-01-25T11:41:35,42.805,6.029,CST-1368DR,4952,6253,13489,0.586,551
2022-01-25T11:44:36,42.805,6.029,CST-1368DR,4952,6254,13492,0.585,551
2022-01-25T11:47:38,42.805,6.029,CST-1368DR,4952,6254,13491,0.585,551
2022-01-25T11:50:39,42.805,6.029,CST-1368DR,4952,6254,13492,0.585,551
2022-01-25T11:53:41,42.805,6.029,CST-1368DR,4952,6255,13493,0.585,551
2022-01-25T11:56:43,42.805,6.029,CST-1368DR,4952,6254,13491,0.585,551
2022-01-25T11:59:44,42.805,6.029,CST-1368DR,4952,6254,13492,0.585,551
2022-01-25T12:02:46,42.805,6.029,CST-1368DR,4952,6254,13492,0.585,551
2022-01-25T12:05:47,42.805,6.029,CST-1368DR,4952,6254,13492,0.585,551
2022-01-25T12:08:49,42.805,6.029,CST-1368DR,4952,6254,13492,0.585,551
2022-01-25T12:11:51,42.805,6.029,CST-1368DR,4952,6254,13491,0.585,551
2022-01-25T12:14:52,42.805,6.029,CST-1368DR,4952,6254,13492,0.585,551
2022-01-25T12:17:54,42.805,6.029,CST-1368DR,4952,6254,13492,0.585,551
2022-01-25T12:20:55,42.805,6.029,CST-1368DR,4952,6254,13491,0.585,551
2022-01-25T12:23:57,42.805,6.029,CST-1368DR,4952,6254,13492,0.585,551
2022-01-25T12:26:58,42.805,6.029,CST-1368DR,4952,6255,13493,0.585,551
2022-01-25T12:30:00,42.805,6.029,CST-1368DR,4952,6254,13491,0.585,551
2022-01-25T12:33:02,42.805,6.029,CST-1368DR,4952,6253,13489,0.586,551
2022-01-25T12:36:03,42.805,6.029,CST-1368DR,4952,6254,13491,0.585,551
2022-01-25T12:39:05,42.805,6.029,CST-1368DR,4952,6254,13491,0.585,551
2022-01-25T12:42:06,42.805,6.029,CST-1368DR,4952,6254,13492,0.585,550
2022-01-25T12:45:08,42.805,6.029,CST-1368DR,4952,6254,13492,0.585,551
2022-01-25T12:48:10,42.805,6.029,CST-1368DR,4952,6255,13493,0.585,551
2022-01-25T12:51:11,42.805,6.029,CST-1368DR,4952,6254,13492,0.585,551
2022-01-25T12:54:13,42.805,6.029,CST-1368DR,4952,6253,13489,0.586,551
2022-01-25T12:57:14,42.805,6.029,CST-1368DR,4952,6254,13491,0.585,551
2022-01-25T13:00:16,42.805,6.029,CST-1368DR,4952,6254,13492,0.585,551
2022-01-25T13:03:17,42.805,6.029,CST-1368DR,4952,6254,13491,0.585,551
2022-01-25T13:06:19,42.805,6.029,CST-1368DR,4952,6254,13491,0.585,551
2022-01-25T13:09:21,42.805,6.029,CST-1368DR,4952,6254,13492,0.585,551
2022-01-25T13:12:22,42.805,6.029,CST-1368DR,4952,6254,13491,0.585,551
2022-01-25T13:15:24,42.805,6.029,CST-1368DR,4952,6254,13491,0.585,551
2022-01-25T13:18:25,42.805,6.029,CST-1368DR,4952,6254,13491,0.585,551
2022-01-25T13:21:27,42.805,6.029,CST-1368DR,4952,6254,13491,0.585,551
2022-01-25T13:24:28,42.805,6.029,CST-1368DR,4952,6254,13492,0.585,551
2022-01-25T13:27:30,42.805,6.029,CST-1368DR,4952,6253,13489,0.586,551
2022-01-25T13:30:32,42.805,6.029,CST-1368DR,4952,6254,13491,0.585,551
2022-01-25T13:33:33,42.805,6.029,CST-1368DR,4952,6255,13493,0.585,551
2022-01-25T13:36:35,42.805,6.029,CST-1368DR,4952,6254,13491,0.585,551
2022-01-25T13:39:36,42.805,6.029,CST-1368DR,4951,6253,13492,0.585,551
2022-01-25T13:42:38,42.805,6.029,CST-1368DR,4952,6254,13491,0.585,551
2022-01-25T13:45:40,42.805,6.029,CST-1368DR,4952,6254,13491,0.585,551
2022-01-25T13:48:41,42.805,6.029,CST-1368DR,4952,6254,13491,0.585,551
2022-01-25T13:51:43,42.805,6.029,CST-1368DR,4952,6254,13491,0.585,551
2022-01-25T13:54:44,42.805,6.029,CST-1368DR,4951,6254,13494,0.584,551
2022-01-25T13:57:46,42.805,6.029,CST-1368DR,4952,6253,13489,0.586,551
2022-01-25T14:00:47,42.805,6.029,CST-1368DR,4952,6253,13489,0.586,551
2022-01-25T14:03:49,42.805,6.029,CST-1368DR,4952,6254,13491,0.585,551
2022-01-25T14:06:51,42.805,6.029,CST-1368DR,4952,6254,13492,0.585,551
2022-01-25T14:09:52,42.805,6.029,CST-1368DR,4952,6254,13491,0.585,551
2022-01-25T14:12:54,42.805,6.029,CST-1368DR,4952,6254,13491,0.585,551
2022-01-25T14:15:55,42.805,6.029,CST-1368DR,4952,6254,13492,0.585,551
2022-01-25T14:18:57,42.805,6.029,CST-1368DR,4952,6255,13493,0.585,551
2022-01-25T14:21:59,42.805,6.029,CST-1368DR,4952,6254,13491,0.585,551
2022-01-25T14:25:00,42.805,6.029,CST-1368DR,4952,6254,13491,0.585,551
2022-01-25T14:28:02,42.805,6.029,CST-1368DR,4952,6254,13492,0.585,551
2022-01-25T14:31:03,42.805,6.029,CST-1368DR,4951,6253,13492,0.585,551
2022-01-25T14:34:05,42.805,6.029,CST-1368DR,4951,6254,13494,0.584,551
2022-01-25T14:37:06,42.805,6.029,CST-1368DR,4952,6254,13492,0.585,551
2022-01-25T14:40:08,42.805,6.029,CST-1368DR,4951,6253,13492,0.585,551
2022-01-25T14:43:10,42.805,6.029,CST-1368DR,4951,6254,13494,0.584,551
2022-01-25T14:46:11,42.805,6.029,CST-1368DR,4951,6254,13495,0.584,551
2022-01-25T14:49:13,42.805,6.029,CST-1368DR,4952,6254,13492,0.585,551
2022-01-25T14:52:14,42.805,6.029,CST-1368DR,4952,6254,13491,0.585,551
2022-01-25T14:55:16,42.805,6.029,CST-1368DR,4951,6254,13494,0.584,551
2022-01-25T14:58:18,42.805,6.029,CST-1368DR,4952,6254,13491,0.585,551
2022-01-25T15:01:19,42.805,6.029,CST-1368DR,4951,6254,13493,0.585,551
2022-01-25T15:04:21,42.805,6.029,CST-1368DR,4951,6253,13491,0.585,551
2022-01-25T15:07:22,42.805,6.029,CST-1368DR,4952,6254,13492,0.585,551
2022-01-25T15:10:24,42.805,6.029,CST-1368DR,4952,6254,13492,0.585,551
2022-01-25T15:13:25,42.805,6.029,CST-1368DR,4951,6252,13490,0.585,551
2022-01-25T15:16:27,42.805,6.029,CST-1368DR,4951,6253,13492,0.585,551
2022-01-25T15:19:29,42.805,6.029,CST-1368DR,4951,6253,13492,0.585,551
2022-01-25T15:22:30,42.805,6.029,CST-1368DR,4952,6252,13488,0.586,551
2022-01-25T15:25:32,42.805,6.029,CST-1368DR,4951,6252,13490,0.585,551
2022-01-25T15:28:33,42.805,6.029,CST-1368DR,4951,6253,13492,0.585,551
2022-01-25T15:31:35,42.805,6.029,CST-1368DR,4951,6252,13490,0.585,551
2022-01-25T15:34:36,42.805,6.029,CST-1368DR,4951,6253,13491,0.585,551
2022-01-25T15:37:38,42.805,6.029,CST-1368DR,4951,6253,13491,0.585,551
2022-01-25T15:40:40,42.805,6.029,CST-1368DR,4952,6253,13488,0.586,551
2022-01-25T15:43:41,42.805,6.029,CST-1368DR,4951,6252,13490,0.585,551
2022-01-25T15:46:43,42.805,6.029,CST-1368DR,4951,6253,13491,0.585,551
2022-01-25T15:49:44,42.805,6.029,CST-1368DR,4951,6252,13489,0.586,551
2022-01-25T15:52:46,42.805,6.029,CST-1368DR,4951,6252,13490,0.585,551
2022-01-25T15:55:48,42.805,6.029,CST-1368DR,4951,6252,13489,0.586,551
2022-01-25T15:58:49,42.805,6.029,CST-1368DR,4951,6253,13491,0.585,551
2022-01-25T16:01:51,42.805,6.029,CST-1368DR,4951,6252,13489,0.586,551
2022-01-25T16:04:52,42.805,6.029,CST-1368DR,4951,6253,13491,0.585,551
2022-01-25T16:07:54,42.805,6.029,CST-1368DR,4951,6252,13490,0.585,551
2022-01-25T16:10:55,42.805,6.029,CST-1368DR,4951,6252,13489,0.586,551
2022-01-25T16:13:57,42.805,6.029,CST-1368DR,4951,6253,13491,0.585,551
2022-01-25T16:16:59,42.805,6.029,CST-1368DR,4951,6253,13491,0.585,551
2022-01-25T16:20:00,42.805,6.029,CST-1368DR,4951,6252,13490,0.585,551
2022-01-25T16:23:02,42.805,6.029,CST-1368DR,4951,6253,13491,0.585,551
2022-01-25T16:26:03,42.805,6.029,CST-1368DR,4951,6252,13490,0.585,551
2022-01-25T16:29:05,42.805,6.029,CST-1368DR,4951,6252,13490,0.585,551
2022-01-25T16:32:07,42.805,6.029,CST-1368DR,4951,6252,13489,0.586,551
2022-01-25T16:35:08,42.805,6.029,CST-1368DR,4951,6252,13490,0.585,551
2022-01-25T16:38:10,42.805,6.029,CST-1368DR,4951,6251,13488,0.586,551
2022-01-25T16:41:11,42.805,6.029,CST-1368DR,4951,6252,13489,0.586,551
2022-01-25T16:44:13,42.805,6.029,CST-1368DR,4951,6252,13489,0.586,551
2022-01-25T16:47:14,42.805,6.029,CST-1368DR,4951,6252,13489,0.586,551
2022-01-25T16:50:16,42.805,6.029,CST-1368DR,4951,6252,13489,0.586,551
2022-01-25T16:53:18,42.805,6.029,CST-1368DR,4951,6252,13489,0.586,551